RH
43 42 47 51 51 53 56 55 50 39 33 31 26 23 20 19 18 18 18 17 16 15 12 11 9 8 9 8 7 5 5 5 4 4 4 5 6 6 4 4 5 5 5 5 6 5 5 5 5 7 7 6 6 6 7 7 7 8 11 12 11 12 12 9 8 8 8 8 10 12 12 11 11 13 14 14 14 15 16 18 19 18 18 19 20 21 21 22
49 42 44 50 49 52 59 53 38 31 29 27 23 21 21 21 20 19 18 16 14 12 10 9 9 9 9 8 6 4 5 4 4 5 5 6 6 5 5 5 5 5 6 6 6 6 5 5 5 5 6 6 6 6 7 7 7 8 9 12 13 12 9 8 7 8 8 9 9 10 12 12 12 13 14 14 13 15 15 18 22 22 20 18 19 22 22 23
56 47 45 50 52 55 55 42 30 27 26 23 22 22 22 21 20 19 17 14 12 10 9 9 9 9 8 7 6 5 5 5 4 5 6 6 5 5 5 5 5 6 6 6 6 6 6 6 5 5 5 6 6 6 7 8 8 8 9 12 13 10 7 8 8 8 9 9 10 10 12 12 12 14 14 14 14 14 15 19 23 24 23 21 20 22 24 25
59 53 49 52 56 55 45 33 28 25 23 23 22 22 21 20 18 17 14 12 10 9 10 9 8 7 6 6 6 5 6 5 4 6 6 5 5 5 5 5 5 6 6 6 6 6 6 6 6 6 6 6 7 7 7 8 9 8 10 12 10 8 8 9 9 10 10 11 11 11 11 12 13 14 14 15 14 13 16 20 20 20 21 21 21 23 25 26
59 58 56 56 53 46 38 32 28 24 23 23 22 21 20 18 16 13 11 9 9 10 10 8 6 5 4 5 7 6 7 6 4 5 5 5 5 5 5 5 4 5 5 5 6 6 7 7 7 7 7 7 7 8 9 9 9 9 10 10 8 9 9 9 10 11 11 11 11 11 12 13 14 14 14 15 15 14 17 20 20 21 21 21 22 24 25 26
58 61 60 54 45 39 38 33 26 24 23 22 21 19 17 15 12 10 9 8 9 9 8 7 6 4 4 5 6 6 7 6 4 5 5 4 5 5 6 6 5 5 5 5 7 7 7 7 7 7 7 7 8 9 9 9 10 10 11 10 9 10 9 10 11 12 13 12 11 11 13 14 14 14 15 16 17 16 18 20 21 22 23 23 23 25 26 27
55 56 51 44 37 37 38 29 23 23 21 20 19 17 14 12 9 8 8 8 8 7 7 7 6 5 3 4 5 5 5 5 5 5 4 4 5 5 6 6 6 6 6 6 6 6 6 6 6 7 7 8 8 9 10 10 11 11 11 10 10 11 11 11 12 13 14 13 13 13 14 14 13 14 16 17 17 17 19 21 21 21 24 25 25 26 27 28
45 42 37 35 33 34 32 26 23 22 19 18 16 14 11 9 8 8 7 7 6 5 6 6 5 5 4 5 6 4 5 5 4 4 5 5 4 5 6 6 7 6 7 6 6 7 7 7 7 7 8 9 9 10 11 10 12 12 11 12 11 11 12 13 14 15 15 14 15 15 14 13 14 16 17 17 17 19 20 19 19 21 24 26 26 27 27 28
37 34 32 31 30 30 27 24 22 20 18 16 13 11 9 8 9 7 6 5 4 4 5 5 4 4 3 5 5 4 5 5 4 4 4 5 5 5 6 6 6 7 8 7 7 8 7 8 8 8 9 9 10 11 11 11 14 14 12 13 12 11 13 14 14 14 14 14 14 14 13 12 15 18 17 19 19 19 19 18 19 21 24 26 27 28 28 30
37 32 32 30 28 26 24 22 20 18 15 13 11 9 8 9 9 6 5 4 4 4 3 4 4 4 4 5 5 5 5 5 4 4 4 5 5 5 6 6 7 7 8 8 7 7 8 9 9 9 9 10 11 11 11 13 14 14 14 14 13 13 13 14 13 13 13 14 14 13 13 14 17 19 19 21 20 18 18 19 20 21 23 25 26 28 29 31
37 33 33 31 27 25 23 21 18 15 12 10 8 8 9 9 7 5 5 4 4 4 3 4 4 4 5 4 5 5 5 5 5 5 5 5 5 6 6 6 7 8 8 8 7 7 7 8 9 10 10 10 11 12 14 14 13 14 15 15 14 13 12 13 13 12 12 14 14 13 13 15 18 19 19 20 19 18 18 19 20 21 23 25 26 29 30 31
34 33 34 31 29 25 22 19 15 12 10 8 8 8 8 7 5 4 4 4 4 4 4 4 4 5 5 5 5 5 5 5 6 5 6 6 6 6 6 6 7 8 9 8 8 7 7 8 9 9 10 11 11 12 14 13 13 14 14 14 15 14 13 12 12 12 13 14 14 13 14 16 18 19 19 19 18 18 17 18 21 21 23 25 27 29 30 30
32 32 34 33 30 25 21 16 11 10 8 8 8 8 6 4 4 4 4 4 4 4 4 4 4 5 6 6 5 6 6 6 6 6 6 6 7 7 6 7 7 8 8 8 7 7 7 8 9 9 9 11 11 12 13 13 13 13 13 14 14 15 15 13 13 13 13 14 14 14 16 17 17 18 19 19 18 18 18 19 21 22 24 26 27 28 28 29
32 33 36 34 30 25 19 12 9 9 8 8 7 6 4 4 4 4 4 4 5 4 4 5 5 5 6 6 6 6 6 6 6 7 7 7 7 7 7 7 7 8 8 8 7 7 8 8 9 10 10 11 13 14 13 13 12 12 13 15 14 16 16 13 13 14 13 14 14 15 18 18 17 19 19 19 19 19 19 20 22 23 25 26 27 27 26 28
34 35 37 34 29 24 16 11 9 8 8 8 6 5 5 5 5 5 5 5 5 5 5 5 6 7 7 6 6 6 6 7 7 7 7 7 7 7 8 7 7 8 8 8 7 8 8 9 10 11 12 12 13 14 14 13 12 11 14 16 17 17 17 14 14 15 14 14 14 16 18 18 19 19 19 19 20 20 20 22 23 25 26 27 26 25 26 28
36 36 37 33 27 21 13 9 8 8 8 7 5 5 6 5 4 5 5 5 5 5 5 5 6 7 7 6 6 7 7 8 8 8 8 7 8 8 8 8 8 8 8 8 8 8 8 9 11 12 12 11 11 12 13 13 12 13 15 16 17 17 17 17 16 15 15 15 14 16 18 19 19 19 19 21 21 22 22 23 24 26 27 26 25 25 26 29
36 37 35 29 24 18 10 7 8 7 7 6 6 6 6 5 5 5 5 5 5 5 5 5 6 7 8 7 7 8 8 8 8 8 8 8 8 8 8 9 9 9 8 8 8 9 9 10 11 12 11 11 12 11 13 15 15 15 15 15 16 17 18 18 18 17 15 16 15 16 18 19 19 19 20 21 22 23 24 25 26 27 27 26 25 26 29 32
36 37 32 25 22 15 9 8 7 6 5 5 5 5 5 5 5 5 5 5 5 6 6 6 7 9 9 8 8 8 8 8 8 9 9 9 9 9 9 9 9 9 9 10 9 10 11 11 11 11 11 12 12 13 15 17 18 17 17 17 16 17 19 20 19 18 16 16 16 16 18 20 20 19 20 22 24 24 25 26 28 28 27 26 27 29 33 37
37 36 30 24 19 11 8 7 6 5 5 5 5 5 5 5 5 6 6 5 7 8 8 8 9 10 10 9 9 8 8 9 9 9 9 9 9 9 9 10 11 11 10 10 10 11 12 12 11 12 13 14 15 15 17 17 17 17 18 19 18 18 20 20 18 18 17 16 17 17 18 20 21 20 21 23 24 25 26 27 29 28 27 27 29 33 38 40
37 32 27 23 15 9 8 7 5 5 6 6 5 6 7 7 7 7 6 6 7 8 8 8 9 10 9 9 9 8 9 9 10 10 9 9 10 10 10 11 12 11 12 12 12 13 14 13 13 14 15 16 16 16 16 16 17 18 18 19 20 20 19 17 17 18 18 17 18 19 19 20 21 20 21 23 24 26 27 29 29 28 28 30 33 37 40 40
34 29 26 21 12 8 8 6 6 6 6 6 6 7 9 9 8 8 8 8 8 8 8 8 9 9 9 9 9 9 9 9 10 10 9 10 10 10 11 12 12 11 13 15 14 13 14 14 15 16 15 16 17 17 17 17 18 18 18 19 20 21 18 16 17 18 18 18 18 18 18 20 20 21 22 23 25 27 28 29 30 30 31 32 34 36 38 40
32 26 23 17 9 8 7 5 6 5 5 6 6 8 8 7 7 8 9 9 9 8 9 9 9 10 9 10 9 10 10 10 11 10 10 10 10 11 12 12 12 13 13 14 14 13 13 14 16 16 15 17 18 18 17 17 19 18 17 17 18 20 18 17 18 18 18 19 19 18 19 21 21 22 24 24 26 28 29 31 31 31 32 33 35 37 40 45
30 25 21 13 7 7 6 5 6 5 5 6 6 7 7 7 7 8 8 10 9 9 9 9 10 10 10 10 10 10 11 11 12 10 10 11 12 13 14 13 12 13 13 13 13 13 14 15 16 17 18 18 17 17 16 16 19 18 17 17 18 18 20 20 18 17 18 20 21 19 19 23 24 24 25 25 27 30 32 32 32 32 33 34 37 41 47 53
27 23 17 9 7 7 5 6 6 6 6 6 6 7 7 7 7 8 9 10 10 10 10 9 10 10 10 10 10 11 11 11 12 12 11 11 13 15 14 14 14 14 14 15 14 14 16 16 16 18 19 18 17 17 17 17 16 17 18 18 18 18 20 20 18 17 18 22 24 20 19 24 27 26 25 27 29 30 32 32 32 32 33 36 40 46 55 62
25 19 12 7 7 6 5 6 5 6 7 6 7 7 7 8 8 9 10 10 10 11 11 11 10 10 11 10 11 11 12 12 12 12 12 12 13 15 15 15 15 14 16 17 16 15 16 17 18 20 19 18 18 18 19 18 17 19 20 19 18 18 19 20 20 19 19 21 23 22 21 24 27 27 27 30 30 30 31 31 32 33 34 39 44 51 62 67
20 13 8 7 7 6 7 7 6 7 8 7 7 8 8 9 9 10 11 11 10 11 13 12 12 11 11 11 11 11 12 13 12 12 12 12 13 15 15 15 15 15 17 18 17 16 17 18 19 19 19 18 18 19 20 19 19 21 21 18 18 18 19 21 21 21 21 21 23 24 25 25 25 29 31 30 30 30 31 32 33 34 35 41 48 58 67 67
14 9 8 8 8 7 9 8 7 8 8 9 8 9 9 9 10 10 12 13 11 12 13 12 12 12 11 11 11 12 13 13 13 13 13 13 13 16 16 15 15 16 18 19 18 17 18 18 19 19 19 19 19 19 20 20 21 22 20 19 19 19 21 22 21 22 22 23 25 25 27 25 24 28 29 28 30 32 34 35 35 35 38 43 51 59 62 55
10 9 8 7 8 8 8 8 8 7 9 9 8 8 8 9 10 11 13 13 11 12 13 12 12 11 11 11 11 12 13 14 14 13 13 14 13 15 16 16 15 16 18 20 17 18 20 19 20 21 19 19 20 20 21 22 22 22 20 20 20 20 22 22 22 23 23 25 27 25 25 26 24 27 29 31 35 37 38 38 36 37 39 43 49 50 46 41
10 9 8 8 8 8 8 8 7 7 8 9 9 8 9 9 10 12 13 12 11 12 13 13 12 11 12 13 13 13 14 14 15 14 15 15 14 14 15 17 17 16 18 18 16 18 21 20 22 23 20 20 21 20 22 23 23 21 21 20 21 23 24 23 22 24 25 28 27 24 25 27 26 27 31 36 38 39 39 37 37 39 40 44 46 41 37 35
9 8 8 8 8 7 7 7 7 7 7 8 9 9 10 11 12 12 11 11 13 14 13 13 13 13 14 14 14 14 15 15 16 16 16 16 16 15 15 17 18 18 18 17 18 20 21 22 25 24 22 21 22 21 23 23 23 22 22 21 21 23 23 23 22 23 27 28 26 25 26 30 31 29 30 36 38 38 38 37 38 40 41 43 41 38 37 33
9 9 8 8 7 7 6 6 6 6 7 8 9 10 11 12 12 12 11 12 14 14 13 14 15 15 15 14 14 14 15 16 16 17 17 16 16 16 15 16 17 18 18 17 19 22 23 23 24 23 23 23 22 22 24 25 24 24 23 22 22 22 22 23 23 24 28 28 26 26 27 31 35 32 32 36 38 38 38 38 40 41 42 42 40 39 37 31
9 8 7 7 6 5 6 6 6 6 7 9 10 11 12 13 12 11 11 12 13 14 15 16 17 16 15 15 14 15 16 16 16 18 18 17 17 18 17 17 18 18 17 17 18 21 22 22 22 24 24 23 23 22 24 26 26 25 24 25 26 24 24 27 26 25 28 29 27 27 31 34 33 31 34 37 38 38 39 41 42 43 45 45 44 42 31 21
8 8 7 6 6 5 5 6 6 7 7 8 10 12 12 12 12 12 11 11 13 16 17 17 17 15 15 15 14 15 17 16 16 17 18 17 17 19 19 19 20 20 18 18 18 19 22 22 22 24 23 23 23 23 25 26 26 26 27 29 31 30 33 36 32 30 31 30 29 30 34 37 33 32 36 37 38 39 41 43 45 47 49 47 46 42 27 17
8 7 6 6 5 5 6 6 7 7 7 9 11 11 10 10 12 13 12 11 14 17 18 18 16 15 15 14 14 15 16 16 17 17 17 16 16 17 18 19 21 21 19 20 20 19 22 23 22 23 24 24 24 24 27 28 28 28 29 31 34 35 39 41 36 36 37 33 33 35 36 38 37 37 38 38 40 41 43 47 49 51 50 46 44 37 26 24
7 6 5 5 5 6 6 6 7 7 8 10 11 10 10 10 10 11 12 13 15 16 17 18 16 14 14 14 15 16 15 16 17 17 17 17 17 18 19 20 21 22 22 22 22 22 22 22 23 24 24 24 25 27 29 30 29 29 30 33 36 36 38 39 37 39 42 40 40 39 37 37 38 39 38 39 41 42 48 53 53 51 48 45 41 31 25 28
6 6 5 5 5 6 7 7 7 8 9 10 10 10 11 12 11 12 15 16 16 15 15 16 15 13 12 13 14 15 16 16 16 16 16 18 19 19 20 22 22 23 23 23 23 23 23 23 24 25 25 25 26 27 29 32 31 30 34 36 36 36 39 41 41 39 41 45 42 38 37 37 39 41 40 41 42 45 50 54 52 50 48 46 41 31 26 26
5 5 5 6 6 6 8 9 8 8 10 11 11 11 11 13 14 16 18 18 17 16 14 13 15 14 12 13 13 14 16 17 16 15 16 18 20 21 21 23 24 24 24 25 24 24 25 25 24 25 26 27 28 28 29 32 32 33 37 37 36 38 40 42 44 41 42 45 40 38 42 44 45 46 44 43 45 47 50 51 51 49 47 44 40 37 33 26
5 6 6 7 7 7 8 9 9 9 10 11 12 12 12 14 17 19 20 19 19 17 13 12 15 15 13 13 13 15 18 17 15 15 16 17 20 22 22 23 25 25 25 27 26 24 25 26 25 24 25 27 29 30 31 32 33 34 37 37 37 42 44 44 47 48 51 51 44 41 45 47 48 48 47 46 47 48 48 50 51 48 46 43 37 35 34 25
6 7 8 8 8 8 9 10 10 10 10 11 12 13 14 16 19 21 21 20 19 16 13 13 15 15 14 14 14 16 19 18 15 16 17 18 20 24 23 23 25 26 27 28 26 24 26 27 27 25 25 27 28 29 31 33 34 35 38 39 40 44 46 47 50 52 55 57 54 50 49 48 48 49 49 49 49 49 49 52 53 50 48 41 30 26 26 21
7 9 9 8 9 8 9 9 10 12 12 13 13 14 16 18 21 22 20 20 19 16 13 14 14 14 15 15 15 17 18 18 17 17 17 18 20 23 24 24 25 26 28 29 26 25 26 27 28 26 26 29 29 29 31 32 35 38 41 44 45 46 47 48 51 53 55 59 60 60 56 49 47 49 50 50 50 50 51 52 53 51 44 34 25 22 20 17
9 11 10 9 8 8 8 9 11 14 13 13 14 16 17 19 21 23 21 21 21 18 15 15 16 15 15 16 16 17 18 18 18 18 18 19 20 22 25 27 29 29 28 27 26 26 27 28 28 27 28 30 30 31 31 33 36 39 42 46 47 49 50 51 54 55 58 61 62 65 63 53 48 50 51 51 51 51 52 53 52 48 41 30 23 22 18 15
10 11 10 8 9 8 9 12 15 15 13 14 17 18 19 20 20 22 23 22 21 19 17 18 18 17 17 17 17 18 18 18 18 18 19 20 21 24 28 29 31 33 30 26 27 29 29 29 29 29 29 30 31 31 32 34 36 39 43 45 47 51 53 54 56 57 60 64 62 66 68 58 52 53 52 52 53 53 54 55 52 48 42 32 23 19 17 15
11 11 9 8 8 8 10 13 15 15 16 18 20 20 20 20 20 21 22 21 20 19 18 19 20 19 19 19 19 19 19 19 19 20 20 20 24 29 31 30 31 33 30 26 27 30 31 29 29 30 29 29 31 32 33 36 38 41 44 45 47 52 52 53 56 59 62 65 62 65 67 59 52 53 54 54 55 56 56 53 48 44 38 29 22 19 17 15
9 9 8 8 8 8 10 12 13 14 16 18 19 18 19 20 20 19 20 20 19 19 18 19 20 20 21 21 20 20 21 20 20 21 21 20 25 31 33 32 32 32 30 29 30 31 31 29 30 32 31 31 33 34 35 38 40 42 44 47 50 53 54 54 57 61 64 64 64 69 68 59 53 55 55 56 57 58 56 50 44 39 32 25 22 20 17 15
9 9 8 8 8 8 10 12 13 14 15 15 16 16 16 17 18 18 19 21 21 19 19 20 21 21 22 23 22 22 23 21 20 22 22 21 26 33 33 32 34 34 33 33 33 34 32 29 31 34 35 37 38 39 39 40 42 43 45 49 52 54 56 57 58 63 65 62 66 71 65 55 53 56 57 59 60 58 53 48 43 37 29 25 23 20 17 16
9 9 9 8 8 8 10 12 12 13 14 14 13 14 15 15 17 18 19 20 21 21 21 22 23 22 22 23 23 22 23 23 22 22 23 22 25 31 33 33 36 37 36 34 33 34 32 30 31 34 36 38 39 39 39 39 42 44 46 52 55 55 57 56 58 63 63 61 65 67 64 58 55 56 59 63 63 58 52 46 40 34 29 26 24 21 18 16
9 10 10 10 9 9 10 11 12 12 13 12 12 14 14 15 17 18 18 19 20 22 22 22 23 22 21 22 22 21 23 24 23 23 25 25 25 29 33 36 37 36 36 36 34 34 33 31 33 36 36 37 37 38 38 39 42 44 46 51 54 56 59 59 59 60 60 63 64 61 64 66 60 57 62 65 62 57 52 47 41 35 31 28 25 22 19 16
10 10 10 9 11 12 11 11 13 13 13 12 12 14 14 14 16 16 17 19 20 21 21 21 22 22 21 22 22 22 23 24 24 26 29 28 27 27 30 34 36 35 36 36 34 35 34 32 36 40 40 37 37 38 39 40 42 43 45 47 49 54 60 61 61 59 60 65 64 58 62 67 61 60 64 65 61 59 55 50 43 36 32 29 27 23 20 17
9 9 8 8 11 13 12 12 14 14 13 12 12 13 14 14 15 15 16 17 18 19 20 19 20 21 22 23 23 22 23 23 24 28 31 31 30 28 27 30 33 34 35 33 33 35 34 34 39 42 40 39 38 38 39 39 41 43 44 46 47 51 57 60 61 59 60 63 63 61 64 65 63 64 66 64 63 62 58 53 45 38 34 32 29 25 21 19
8 8 8 8 10 12 11 11 13 13 12 11 11 13 13 13 14 15 16 16 16 18 19 19 20 22 24 24 24 23 23 24 23 25 30 31 30 28 26 27 30 33 34 33 35 36 35 36 40 40 38 38 36 36 38 39 40 42 42 44 47 49 52 57 60 61 62 64 65 66 67 66 64 65 66 64 64 62 60 54 46 40 36 34 31 27 24 21
7 7 7 8 9 11 10 10 11 10 9 9 10 12 13 13 13 14 15 15 15 17 19 19 20 24 26 26 25 24 25 26 25 26 28 28 26 27 26 25 28 33 35 36 38 37 35 35 37 38 38 37 34 35 38 38 39 43 45 46 48 49 51 55 58 61 62 64 66 69 70 67 64 63 64 64 64 63 60 54 48 43 41 37 33 30 26 23
7 6 6 7 9 10 10 9 9 9 9 10 12 14 14 13 13 14 14 14 16 17 18 19 21 22 25 26 27 27 27 28 28 27 27 27 26 26 26 26 28 32 35 38 39 39 38 36 35 37 39 36 35 35 37 39 42 45 46 47 46 46 49 51 55 58 59 62 66 69 69 65 63 63 64 64 65 63 60 55 49 46 44 40 36 33 28 25